Regional Weather Roundup
Issued by NWS Charleston, SC

Current Version | Previous Version | Text Only | Print | Product List | Glossary Off
Versions: 1 2 3 4 5 6 7 8 9 10 11 12 13 14 15 16 17 18 19 20 21 22 23 24 25 26 27 28 29 30 31 32 33 34 35 36 37 38 39 40 41 42 43 44 45 46 47 48 49 50

000
ASUS42 KCHS 230310
RWRCHS
REGIONAL WEATHER ROUNDUP
NATIONAL WEATHER SERVICE CHARLESTON SC
1100 PM EDT FRI AUG 22 2014

NOTE: "FAIR" INDICATES FEW OR NO CLOUDS BELOW 12,000 FEET WITH NO
SIGNIFICANT WEATHER AND/OR OBSTRUCTIONS TO VISIBILITY.

NOT ALL STATIONS ARE QUALITY CONTROLLED BY THE NATIONAL
WEATHER SERVICE. USE DATA WITH CAUTION...ESPECIALLY
DEWPOINT OBSERVATIONS.

SCZ027-030-031-034>040-042>050-230400-
...SOUTH CAROLINA...

CITY           SKY/WX    TMP DP  RH WIND       PRES   REMARKS
N CHARLESTON   CLEAR     84  78  82 SW6       29.96R HX  95
WATERFRONT PRK   N/A     88 N/A N/A SW6         N/A
FORT JOHNSON   NOT AVBL
MOUNT PLEASANT FAIR      84  79  84 S5        29.96R HX  96
JOHNS ISLAND   CLEAR     84  82  94 CALM      29.96S HX 101
PINOPOLIS        N/A     88  79  74 S2        29.86F HX 102
MONCKS CORNER    N/A     82  81  94 CALM      29.95S HX  95
SUMMERVILLE    FAIR      81  81 100 CALM      29.96S HX  91
BEAUFORT MCAS  CLEAR     85  78  80 W7        29.96R HX  96
BEAUFORT ARPT  FAIR      84  79  84 S5        29.96R HX  96
HILTON HEAD IS CLEAR     84  81  89 S3        29.98R HX  98
GEORGETOWN     NOT AVBL
WALTERBORO     NOT AVBL
ORANGEBURG     CLEAR     82  74  76 CALM      29.96S
BARNWELL       FAIR      81  73  78 CALM      29.97R
AIKEN          FAIR      81  72  74 W3        30.01S
MANNING        FAIR      79 N/A N/A CALM      29.95S
KINGSTREE      NOT AVBL
COLUMBIA       CLEAR     81  73  76 W3        29.95R
SUMTER         CLEAR     82  76  81 CALM      29.94S
FLORENCE       CLEAR     81  74  79 CALM      29.95R
MYRTLE BEACH   PTCLDY    84  79  84 S7        29.96S HX  96
N MYRTLE BEACH PTCLDY    85  80  85 S7        29.96R HX  99

$$

GAZ063-065-086>088-099>101-113>116-118-119-134-136>141-150-230400-
...GEORGIA...

CITY           SKY/WX    TMP DP  RH WIND       PRES   REMARKS
SAVANNAH ARPT  PTCLDY    85  76  74 S7        29.97S HX  94
HUNTER AAF     CLEAR     85  76  73 S6        29.96R HX  95
FORT STEWART   CLEAR     84  75  75 S3        29.96S HX  92
STATESBORO     NOT AVBL
SYLVANIA       CLEAR     79  77  94 CALM      29.98R
CLAXTON        FAIR      81  81 100 CALM      29.97S HX  91
THOMSON        CLEAR     79  78  96 CALM      30.03S
AUGUSTA-BUSH   CLEAR     77  73  87 CALM      29.96R
AUGUSTA-DANIEL CLEAR     89  70  53 CALM      29.99R HX  94
SWAINSBORO     FAIR      82  75  78 CALM      29.99S
VIDALIA          N/A     82  73  74 CALM      29.99R
ALMA           CLEAR     80  75  84 CALM      29.99R
WAYCROSS       CLEAR     85  75  72 CALM      29.99R HX  94
JESUP            N/A     86  77  74 SW3       29.98S HX  97
BRUNSWICK      CLEAR     86  72  62 S5        29.99R HX  92
SAINT SIMONS   CLEAR     86  73  65 SW9       29.98S HX  93

$$

SCZ027-028-034-036>038-045-046-048>050-GAZ119-141-230400-
...LAKE AND SUPPLEMENTAL COASTAL OBSERVATIONS...

STATION/POSITION TIME  TEMP    WIND        PRES    WAVE   SWELL
                       AIR SEA DIR/SP/G            HT/PER HT/PER/DIR
                 (UTC) (F)     (DEG/KT/KT) (MB)    (FT/S) (FT/S/D)
UPR LAKE MARION  NOT AVBL
WINYAH BAY       0200   85     210/  5     1014.0S
LAKE MURRAY      0200   85     140/  1/  2 1013.9R
ACE BASIN NERRS  0200   84        CALM     1014.0S
FORT PULASKI     0300   85     200/  4/  7 1015.0R
SAPELO ISLAND    0200   84     190/  5     1015.0S

$$

ANZ835-935-AMZ111-154-330-350-352-354-374-450-454-472-230400-
...C-MAN AND BUOY OBSERVATIONS...

STATION/POSITION TIME  TEMP    WIND        PRES    WAVE   SWELL
                       AIR SEA DIR/SP/G            HT/PER HT/PER/DIR
                 (UTC) (F)     (DEG/KT/KT) (MB)    (FT/S) (FT/S/D)
FOLLY BEACH CMAN 0200   86     210/ 13/ 14 1014.7S
BUOY 41004       0300   85 85  200/ 10/ 10 1014.1S   2/ 9   2/ 9
BUOY 41008       0300   85 85  210/ 12/ 14 1015.0R   1/ 9
5E ST. MARYS GA  0300      84                N/A     1/10
FRYING PAN BUOY  NOT AVBL
BUOY 41025       0300   79     350/  8/ 10 1013.8R   2/ 8   2/ 40/ 8
CAPE LOOKOUT NC  0200   83     290/  6/  7 1013.9R
BUOY 41002       0229   82 82  240/ 12/ 14 1015.7F   2/ 5   2/130/ 9
BUOY 41010       0300   85 86  180/  8/  8 1016.9F   2/ 7   2/150/ 7
BUOY 41012       NOT AVBL
ST AUGUSTINE FL  0300   81     230/  3/  4 1016.5S
CAPERS NEARSHORE 0200   86     230/ 12/ 14   N/A
FRIPP NEARSHORE  NOT AVBL


$$



USA.gov is the U.S. government's official web portal to all federal, state and local government web resources and services.